Satellite: OKEAN-4
Catalog number: 23317
Epoch time:      09183.75637658
Element set:     951
Inclination:      082.5414 deg
RA of node:       319.9560 deg
Eccentricity:    0.0021102
Arg of perigee:   317.3028 deg
Mean anomaly:     042.6534 deg
Mean motion:   14.82706535 rev/day
Decay rate:       2.78e-06 rev/day^2
Epoch rev:           79467
Checksum:              315

Satellite: NOAA-14
Catalog number: 23455
Epoch time:      09182.82062498
Element set:    45
Inclination:      098.9081 deg
RA of node:       260.4500 deg
Eccentricity:    0.0010107
Arg of perigee:   145.1936 deg
Mean anomaly:     214.9880 deg
Mean motion:   14.13765274 rev/day
Decay rate:      .4.1 e-06 rev/day^2
Epoch rev:           74799
Checksum:              305

Satellite: NOAA-15
Catalog number: 25338
Epoch time:      09182.87080379
Element set:    94
Inclination:      098.5842 deg
RA of node:       171.7550 deg
Eccentricity:    0.0011020
Arg of perigee:   021.3654 deg
Mean anomaly:     338.8008 deg
Mean motion:   14.24769817 rev/day
Decay rate:      .9.7 e-06 rev/day^2
Epoch rev:           57886
Checksum:              328

Satellite: RESURS
Catalog number: 25394
Epoch time:      09182.98413336
Element set:    642
Inclination:      098.3363 deg
RA of node:       214.5772 deg
Eccentricity:    0.0001735
Arg of perigee:   135.9333 deg
Mean anomaly:     224.1992 deg
Mean motion:   14.24184973 rev/day
Decay rate:       -1.5e-07 rev/day^2
Epoch rev:           57050
Checksum:              301

Satellite: FENGYUN1
Catalog number: 25730
Epoch time:      09182.92212700
Element set:    8168
Inclination:      098.7547 deg
RA of node:       152.6464 deg
Eccentricity:    0.0020095
Arg of perigee:   171.2505 deg
Mean anomaly:     188.9019 deg
Mean motion:   14.07904849 rev/day
Decay rate:      -3.88e-06 rev/day^2
Epoch rev:           52239
Checksum:              321

Satellite: OKEAN-0
Catalog number: 25860
Epoch time:      09182.49911617
Element set:    07
Inclination:      097.7865 deg
RA of node:       163.1105 deg
Eccentricity:    0.0001699
Arg of perigee:   096.2353 deg
Mean anomaly:     263.9046 deg
Mean motion:   14.73578381 rev/day
Decay rate:       .4. e-07 rev/day^2
Epoch rev:           53525
Checksum:              310

Satellite: NOAA-16
Catalog number: 26536
Epoch time:      09182.81340068
Element set:    4668
Inclination:      099.1760 deg
RA of node:       186.8334 deg
Eccentricity:    0.0009647
Arg of perigee:   236.7347 deg
Mean anomaly:     123.2884 deg
Mean motion:   14.12522834 rev/day
Decay rate:      -2.04e-06 rev/day^2
Epoch rev:           45236
Checksum:              323

Satellite: NOAA-17
Catalog number: 27453
Epoch time:      09182.82568294
Element set:    09
Inclination:      098.4828 deg
RA of node:       241.3916 deg
Eccentricity:    0.0012885
Arg of perigee:   082.8032 deg
Mean anomaly:     277.4580 deg
Mean motion:   14.24074129 rev/day
Decay rate:     .1.43 e-05 rev/day^2
Epoch rev:           36483
Checksum:              322

Satellite: NOAA-18
Catalog number: 28654
Epoch time:      09182.79382125
Element set:    9593
Inclination:      098.9063 deg
RA of node:       125.9201 deg
Eccentricity:    0.0013737
Arg of perigee:   325.8357 deg
Mean anomaly:     034.1935 deg
Mean motion:   14.11267051 rev/day
Decay rate:       -9.7e-07 rev/day^2
Epoch rev:           21201
Checksum:              313

Satellite: NOAA-19
Catalog number: 33591
Epoch time:      09182.84790527
Element set:    27
Inclination:      098.7451 deg
RA of node:       128.2272 deg
Eccentricity:    0.0013789
Arg of perigee:   197.6784 deg
Mean anomaly:     162.3931 deg
Mean motion:   14.10966984 rev/day
Decay rate:      .1.5 e-06 rev/day^2
Epoch rev:           02050
Checksum:              326

/EX
SB KEPS @ AMSAT  $ORB09183.M
Orbital Elements  09183.MISC

HR AMSAT ORBITAL ELEMENTS FOR MANNED AND MISCELLANEOUS SATELLITES
FROM WA5QGD FORT WORTH,TX July 2, 2009
Send Subscribe/unsubscribe to KEPS at 
http://www.amsat.org/mailman/listinfo/keps
BID: ORB09183.M
TO ALL RADIO AMATEURS BT

Satellite: HUBBLE
Catalog number: 20580
Epoch time:      09182.21105557
Element set:    45
Inclination:      028.4715 deg
RA of node:       010.7573 deg
Eccentricity:    0.0003745
Arg of perigee:   065.8123 deg
Mean anomaly:     294.2958 deg
Mean motion:   15.00816593 rev/day
Decay rate:    .1.468 e-04 rev/day^2
Epoch rev:           85196
Checksum:              296

Satellite: ISS
Catalog number: 25544
Epoch time:      09182.83210648
Element set:    1398
Inclination:      051.6394 deg
RA of node:       231.7114 deg
Eccentricity:    0.0007698
Arg of perigee:   173.9945 deg
Mean anomaly:     162.7813 deg
Mean motion:   15.74119689 rev/day
Decay rate:    -1.2261e-04 rev/day^2
Epoch rev:           60825
Checksum:              328

Satellite: CO-58
Catalog number: 28895
Epoch time:      09181.70427705
Element set:    386
Inclination:      098.0569 deg
RA of node:       071.9423 deg
Eccentricity:    0.0017055
Arg of perigee:   308.6022 deg
Mean anomaly:     051.3672 deg
Mean motion:   14.59777704 rev/day
Decay rate:       -4.6e-07 rev/day^2
Epoch rev:           19570
Checksum:              334

